When you browse on this site, cookies collect data to enhance your experience and personalize the content and advertising you see.
Visit our Privacy Policy to learn more. By continuing to use the site, you agree to this use of cookies and data.
  • In Österreich
  • Länderverzeichnis
  • Für 7 Tage
  • Wassertemperatur
  • Satellitenkarten
  • Wetterkarte
  • News
  • Widgets
  • user-avatar
    Anmelden

    Stündliche Wetter Bautzen

    Heute, 19 Juli, Freitag

    Zeit Temperatur Niederschläge Wind Luftdruck Luftfeuchtigkeit
    00:00 +18°C° 0.2 mm 2 m/S 741 mmHg 76%
    01:00 +18°C° 0 mm 2 m/S 741 mmHg 81%
    02:00 +18°C° 0 mm 2 m/S 741 mmHg 82%
    03:00 +17°C° 0 mm 2 m/S 741 mmHg 82%
    04:00 +17°C° 0 mm 2 m/S 741 mmHg 82%
    05:00 +17°C° 0.1 mm 2 m/S 742 mmHg 82%
    06:00 +18°C° 0.1 mm 2 m/S 742 mmHg 82%
    07:00 +18°C° 0.1 mm 2 m/S 742 mmHg 82%
    08:00 +20°C° 0.2 mm 2 m/S 743 mmHg 76%
    09:00 +23°C° 0.2 mm 2 m/S 743 mmHg 69%
    10:00 +25°C° 0.2 mm 3 m/S 743 mmHg 63%
    11:00 +24°C° 0.7 mm 3 m/S 743 mmHg 68%
    12:00 +22°C° 0.7 mm 4 m/S 743 mmHg 74%
    13:00 +21°C° 0.7 mm 4 m/S 743 mmHg 80%
    14:00 +21°C° 0.1 mm 4 m/S 743 mmHg 76%
    15:00 +22°C° 0.1 mm 3 m/S 743 mmHg 71%
    16:00 +24°C° 0.1 mm 3 m/S 743 mmHg 66%
    17:00 +23°C° 0.3 mm 2 m/S 743 mmHg 71%
    18:00 +21°C° 0.3 mm 2 m/S 743 mmHg 76%
    19:00 +22°C° 0.3 mm 1 m/S 743 mmHg 81%
    20:00 +21°C° 0 mm 1 m/S 743 mmHg 84%
    21:00 +20°C° 0 mm 1 m/S 743 mmHg 87%
    22:00 +19°C° 0 mm 1 m/S 744 mmHg 89%
    23:00 +18°C° 0 mm 1 m/S 744 mmHg 90%

    Morgen, 20 Juli, Samstag

    Zeit Temperatur Niederschläge Wind Luftdruck Luftfeuchtigkeit
    00:00 +18°C° 0 mm 1 m/S 744 mmHg 90%
    01:00 +18°C° 0 mm 1 m/S 744 mmHg 91%
    02:00 +16°C° 0 mm 1 m/S 744 mmHg 91%
    03:00 +16°C° 0 mm 1 m/S 744 mmHg 92%
    04:00 +16°C° 0 mm 1 m/S 744 mmHg 92%
    05:00 +18°C° 0 mm 1 m/S 744 mmHg 88%
    06:00 +20°C° 0 mm 1 m/S 744 mmHg 85%
    07:00 +21°C° 0 mm 1 m/S 744 mmHg 81%
    08:00 +22°C° 0 mm 1 m/S 745 mmHg 74%
    09:00 +24°C° 0 mm 1 m/S 745 mmHg 67%
    10:00 +25°C° 0 mm 2 m/S 745 mmHg 61%
    11:00 +27°C° 0 mm 2 m/S 745 mmHg 56%
    12:00 +28°C° 0 mm 2 m/S 744 mmHg 51%
    13:00 +29°C° 0 mm 2 m/S 744 mmHg 47%
    14:00 +29°C° 0 mm 2 m/S 744 mmHg 47%
    15:00 +29°C° 0 mm 2 m/S 744 mmHg 47%
    16:00 +29°C° 0 mm 2 m/S 743 mmHg 47%
    17:00 +28°C° 0 mm 2 m/S 743 mmHg 53%
    18:00 +27°C° 0 mm 2 m/S 743 mmHg 59%
    19:00 +26°C° 0 mm 2 m/S 743 mmHg 65%
    20:00 +25°C° 0.6 mm 1 m/S 743 mmHg 70%
    21:00 +23°C° 0.6 mm 1 m/S 743 mmHg 75%
    22:00 +22°C° 0.6 mm 1 m/S 744 mmHg 79%
    23:00 +21°C° 0.4 mm 2 m/S 744 mmHg 81%

    übermorgen, 21 Juli, Sonntag

    Zeit Temperatur Niederschläge Wind Luftdruck Luftfeuchtigkeit
    00:00 +20°C° 0.4 mm 3 m/S 743 mmHg 82%
    01:00 +20°C° 0.4 mm 3 m/S 743 mmHg 83%
    02:00 +20°C° 0 mm 3 m/S 743 mmHg 84%
    03:00 +20°C° 0 mm 3 m/S 743 mmHg 84%
    04:00 +20°C° 0 mm 3 m/S 743 mmHg 84%
    05:00 +21°C° 0 mm 3 m/S 743 mmHg 81%
    06:00 +21°C° 0 mm 4 m/S 744 mmHg 78%
    07:00 +22°C° 0 mm 4 m/S 744 mmHg 75%
    08:00 +23°C° 0 mm 4 m/S 744 mmHg 70%
    09:00 +25°C° 0 mm 4 m/S 745 mmHg 65%
    10:00 +27°C° 0 mm 5 m/S 745 mmHg 60%
    11:00 +27°C° 0.2 mm 5 m/S 745 mmHg 58%
    12:00 +28°C° 0.2 mm 5 m/S 745 mmHg 56%
    13:00 +28°C° 0.2 mm 5 m/S 746 mmHg 54%
    14:00 +28°C° 0.4 mm 5 m/S 746 mmHg 55%
    15:00 +27°C° 0.4 mm 5 m/S 746 mmHg 57%
    16:00 +27°C° 0.4 mm 5 m/S 746 mmHg 58%
    17:00 +26°C° 0.1 mm 4 m/S 746 mmHg 62%
    18:00 +25°C° 0.1 mm 3 m/S 746 mmHg 65%
    19:00 +24°C° 0.1 mm 3 m/S 747 mmHg 69%
    20:00 +22°C° 0 mm 3 m/S 747 mmHg 73%
    21:00 +20°C° 0 mm 3 m/S 748 mmHg 77%
    22:00 +19°C° 0 mm 2 m/S 748 mmHg 81%
    23:00 +18°C° 0 mm 2 m/S 748 mmHg 82%

    22 Juli, Montag

    Zeit Temperatur Niederschläge Wind Luftdruck Luftfeuchtigkeit
    00:00 +18°C° 0 mm 2 m/S 749 mmHg 83%
    01:00 +17°C° 0 mm 2 m/S 749 mmHg 85%
    02:00 +17°C° 0 mm 2 m/S 749 mmHg 87%
    03:00 +16°C° 0 mm 2 m/S 749 mmHg 89%
    04:00 +16°C° 0 mm 2 m/S 749 mmHg 92%
    05:00 +17°C° 0 mm 2 m/S 750 mmHg 88%
    06:00 +18°C° 0 mm 2 m/S 750 mmHg 84%
    07:00 +19°C° 0 mm 2 m/S 750 mmHg 80%
    08:00 +21°C° 0 mm 2 m/S 750 mmHg 72%
    09:00 +22°C° 0 mm 3 m/S 751 mmHg 65%
    10:00 +24°C° 0 mm 3 m/S 751 mmHg 58%
    11:00 +25°C° 0 mm 3 m/S 751 mmHg 55%
    12:00 +26°C° 0 mm 3 m/S 751 mmHg 52%
    13:00 +27°C° 0 mm 3 m/S 750 mmHg 50%
    14:00 +27°C° 0 mm 3 m/S 750 mmHg 49%
    15:00 +27°C° 0 mm 3 m/S 750 mmHg 49%
    16:00 +27°C° 0 mm 3 m/S 750 mmHg 48%
    17:00 +26°C° 0 mm 3 m/S 750 mmHg 54%
    18:00 +25°C° 0 mm 2 m/S 750 mmHg 59%
    19:00 +24°C° 0 mm 2 m/S 750 mmHg 64%
    20:00 +22°C° 0 mm 1 m/S 750 mmHg 67%
    21:00 +21°C° 0 mm 1 m/S 751 mmHg 69%
    22:00 +20°C° 0 mm 1 m/S 751 mmHg 71%
    23:00 +19°C° 0 mm 1 m/S 751 mmHg 73%

    23 Juli, Dienstag

    Zeit Temperatur Niederschläge Wind Luftdruck Luftfeuchtigkeit
    00:00 +17°C° 0 mm 0 m/S 751 mmHg 74%
    01:00 +16°C° 0 mm 0 m/S 751 mmHg 75%
    02:00 +16°C° 0 mm 0 m/S 750 mmHg 76%
    03:00 +16°C° 0 mm 0 m/S 750 mmHg 77%
    04:00 +15°C° 0 mm 0 m/S 750 mmHg 78%
    05:00 +17°C° 0 mm 0 m/S 750 mmHg 73%
    06:00 +19°C° 0 mm 0 m/S 750 mmHg 68%
    07:00 +20°C° 0 mm 0 m/S 751 mmHg 63%
    08:00 +24°C° 0 mm 1 m/S 751 mmHg 57%
    09:00 +25°C° 0 mm 1 m/S 751 mmHg 51%
    10:00 +27°C° 0 mm 1 m/S 751 mmHg 45%
    11:00 +28°C° 0 mm 1 m/S 750 mmHg 43%
    12:00 +29°C° 0 mm 1 m/S 750 mmHg 41%
    13:00 +30°C° 0 mm 1 m/S 750 mmHg 39%
    14:00 +30°C° 0 mm 1 m/S 749 mmHg 39%
    15:00 +30°C° 0 mm 1 m/S 749 mmHg 39%
    16:00 +30°C° 0 mm 2 m/S 749 mmHg 38%
    17:00 +29°C° 0 mm 2 m/S 749 mmHg 45%
    18:00 +28°C° 0 mm 1 m/S 748 mmHg 52%
    19:00 +26°C° 0 mm 1 m/S 748 mmHg 58%
    20:00 +25°C° 0 mm 1 m/S 748 mmHg 60%
    21:00 +23°C° 0 mm 1 m/S 748 mmHg 62%
    22:00 +20°C° 0 mm 0 m/S 748 mmHg 64%
    23:00 +19°C° 0 mm 0 m/S 748 mmHg 66%

    24 Juli, Mittwoch

    Zeit Temperatur Niederschläge Wind Luftdruck Luftfeuchtigkeit
    00:00 +19°C° 0 mm 0 m/S 748 mmHg 69%
    01:00 +18°C° 0 mm 0 m/S 748 mmHg 71%
    02:00 +18°C° 0 mm 0 m/S 748 mmHg 72%
    03:00 +18°C° 0 mm 0 m/S 748 mmHg 74%
    04:00 +17°C° 0 mm 0 m/S 748 mmHg 75%
    05:00 +19°C° 0 mm 0 m/S 748 mmHg 71%
    06:00 +21°C° 0 mm 0 m/S 748 mmHg 66%
    07:00 +22°C° 0 mm 0 m/S 748 mmHg 62%
    08:00 +24°C° 0 mm 0 m/S 748 mmHg 57%
    09:00 +28°C° 0 mm 1 m/S 748 mmHg 53%
    10:00 +30°C° 0 mm 1 m/S 748 mmHg 48%
    11:00 +30°C° 0 mm 1 m/S 748 mmHg 45%
    12:00 +31°C° 0 mm 1 m/S 748 mmHg 43%
    13:00 +32°C° 0 mm 1 m/S 748 mmHg 41%
    14:00 +32°C° 0 mm 1 m/S 747 mmHg 41%
    15:00 +32°C° 0 mm 2 m/S 747 mmHg 42%
    16:00 +32°C° 0 mm 2 m/S 747 mmHg 42%
    17:00 +31°C° 0 mm 1 m/S 747 mmHg 48%
    18:00 +29°C° 0 mm 1 m/S 747 mmHg 54%
    19:00 +28°C° 0 mm 1 m/S 747 mmHg 60%
    20:00 +27°C° 0 mm 1 m/S 747 mmHg 63%
    21:00 +25°C° 0 mm 1 m/S 747 mmHg 67%
    22:00 +24°C° 0 mm 1 m/S 747 mmHg 71%
    23:00 +23°C° 0 mm 1 m/S 747 mmHg 73%
    Mehr zeigen